User: anonymous   Login
Location: Unspecified
(0.0000°N, 0.0000°E)
Time: 14:46:30
(UTC+00:00)
Language:

UNISAT 6 - Orbit

View from above orbital plane
View from above orbital plane
View from above satellite
View from above satellite

Ground track
Ground track

The orbit data is extracted from the following two-line orbital elements,

1 40012U 14033C   17206.22770710 +.00000162 +00000-0 +31931-4 0  9990
2 40012 097.8519 088.7578 0058745 170.3598 189.8752 14.73635679166546
Epoch (UTC): 25 July 2017 05:27:53
Eccentricity: 0.0058745
inclination: 97.8519°
perigee height: 608 km
apogee height: 691 km
right ascension of ascending node: 88.7578°
argument of perigee: 170.3598°
revolutions per day: 14.73635679
mean anomaly at epoch: 189.8752°
orbit number at epoch: 16654

The dashed part of the orbit path shows where the satellite is in the earth's shadow,  

DLR